Stations météo

réclame
Mon MeteoGroup
Hemling, Suède (2265): Température de l'air & dewpoint: 09.11.2018 22:00:00 - 15.11.2018 22:00:00 (CET)Hemling, Suède (2265): Vitesse du vent & gusts: 09.11.2018 22:00:00 - 15.11.2018 22:00:00 (CET)Hemling, Suède (2265): Direction du vent: 09.11.2018 22:00:00 - 15.11.2018 22:00:00 (CET)Hemling, Suède (2265): reduced air pressure: 09.11.2018 22:00:00 - 15.11.2018 22:00:00 (CET)Hemling, Suède (2265): visibility: 09.11.2018 22:00:00 - 15.11.2018 22:00:00 (CET)Hemling, Suède (2265): Quantités de précipitations: 09.11.2018 22:00:00 - 15.11.2018 22:00:00 (CET)
Date & Time tt [°C] td [°C] ff [km/h] ff [knt] fx [km/h] fx [knt] dd ppp [hPa] vv [km] rr [mm]
15.11.2018 22:00:00 2,0 2,0 0 0 3 2 N 1023,2 2,6 0,0
15.11.2018 21:00:00 2,4 2,4 0 0 5 3 N 1023,1 7 0,0
15.11.2018 20:00:00 2,1 2,1 0 0 9 5 N 1022,9 12 0,1
15.11.2018 19:00:00 1,0 1,0 2 1 7 4 S 1022,5 2,8 0,0
15.11.2018 18:00:00 0,6 0,6 3 2 6 3 W 1022,1 4,7 0,0
15.11.2018 17:00:00 0,2 0,2 3 1 7 4 W 1022,0 0,2 0,0
15.11.2018 16:00:00 0,1 0,1 3 2 6 3 W 1021,3 0,2 0,0
15.11.2018 15:00:00 0,3 0,3 2 1 6 3 SSE 1020,8 6 0,0
15.11.2018 14:00:00 1,9 1,9 0 0 6 3 N 1019,9 2,6 0,0
15.11.2018 13:00:00 2,6 2,6 5 3 11 6 NW 1019,5 50 0,0
15.11.2018 12:00:00 2,8 2,8 9 5 17 9 SW 1019,0 50 0,0
15.11.2018 11:00:00 2,2 2,2 3 2 9 5 SE 1018,6 50 0,0
15.11.2018 10:00:00 1,0 1,0 4 2 7 4 S 1018,1 50 0,0
15.11.2018 09:00:00 0,8 0,8 0 0 18 10 N 1018,3 50 0,0
15.11.2018 08:00:00 0,5 0,5 9 5 16 9 S 1017,9 48 0,0
15.11.2018 07:00:00 0,5 0,5 8 4 14 7 S 1017,6 50 0,0
15.11.2018 06:00:00 0,5 0,5 4 2 13 7 S 1017,5 37 0,0
15.11.2018 05:00:00 0,5 0,5 5 3 18 10 S 1017,2 50 0,0
15.11.2018 04:00:00 0,4 0,4 9 5 19 11 WSW 1017,7 50 0,0
15.11.2018 03:00:00 0,9 0,9 7 4 13 7 SSW 1017,7 45 0,0
15.11.2018 02:00:00 0,5 0,5 4 2 10 6 S 1017,2 9 0,0
15.11.2018 01:00:00 0,6 0,6 7 4 15 8 S 1017,9 12 0,0
15.11.2018 00:00:00 0,0 0,0 2 1 7 4 E 1018,0 0,4 0,0
14.11.2018 23:00:00 -0,2 -0,2 2 1 9 5 E 1018,4 0,2 0,0
14.11.2018 22:00:00 -1,2 -1,2 9 5 10 6 SE 1018,5 0,3 0,0
14.11.2018 21:00:00 -2,4 -2,4 4 2 6 4 SE 1018,6 8 0,0
14.11.2018 20:00:00 -2,5 -2,5 0 0 3 2 N 1018,8 0,9 0,0
14.11.2018 19:00:00 -2,5 -2,5 0 0 3 2 N 1019,2 39 0,0
14.11.2018 18:00:00 -2,8 -2,8 0 0 2 1 N 1019,5 23 0,0
14.11.2018 17:00:00 -2,4 -2,4 0 0 3 2 N 1019,2 0,5 0,0
14.11.2018 16:00:00 -2,2 -2,2 0 0 3 2 N 1019,2 50 0,0
14.11.2018 15:00:00 -1,6 -1,6 2 1 4 2 WSW 1018,9 50 0,0
14.11.2018 14:00:00 1,0 0,9 0 0 3 2 N 1018,7 50 0,0
14.11.2018 13:00:00 1,3 0,7 0 0 3 1 N 1018,3 50 0,0
14.11.2018 12:00:00 0,6 0,6 0 0 4 2 N 1018,2 50 0,0
14.11.2018 11:00:00 0,4 0,4 0 0 2 1 N 1017,8 26 0,0
14.11.2018 10:00:00 -1,0 -1,0 0 0 4 2 N 1017,1 50 0,0
14.11.2018 09:00:00 -3,4 -3,7 0 0 4 2 N 1016,6 50 0,0
14.11.2018 08:00:00 -2,9 -3,0 3 2 5 3 WNW 1016,0 50 0,0
14.11.2018 07:00:00 -2,5 -2,5 2 1 5 3 W 1015,5 50 0,0
14.11.2018 06:00:00 -2,0 -2,0 5 3 9 5 WNW 1014,9 50 0,0
14.11.2018 05:00:00 -1,9 -1,9 4 2 6 4 W 1014,5 42 0,0
14.11.2018 04:00:00 -0,8 -0,8 2 1 13 7 NW 1013,7 50 0,0
14.11.2018 03:00:00 -0,5 -0,5 5 3 11 6 NNW 1013,1 50 0,0
14.11.2018 02:00:00 -0,4 -0,4 4 2 10 5 WNW 1012,7 35 0,0
14.11.2018 01:00:00 -1,1 -1,1 0 0 10 5 N 1012,3 50 0,0
14.11.2018 00:00:00 0,1 0,1 5 3 9 5 WNW 1011,8 50 0,0
13.11.2018 23:00:00 0,7 0,7 3 2 5 3 NW 1011,4 4,7 0,0
13.11.2018 22:00:00 1,4 1,4 0 0 10 5 N 1011,1 0,4 0,0
13.11.2018 21:00:00 3,0 3,0 6 3 11 6 W 1010,5 0,6 0,0
13.11.2018 20:00:00 3,4 3,4 7 4 16 9 WNW 1010,1 2,7 0,0
13.11.2018 19:00:00 4,1 4,1 7 4 14 8 WNW 1009,6 50 0,0
13.11.2018 18:00:00 4,3 4,3 0 0 10 5 N 1009,4 50 0,0
13.11.2018 17:00:00 4,9 4,9 5 3 16 9 NW 1008,9 50 0,0
13.11.2018 16:00:00 4,7 4,7 5 3 16 9 WNW 1008,5 50 0,0
13.11.2018 15:00:00 3,8 3,8 0 0 11 6 N 1008,2 3,2 0,0
13.11.2018 14:00:00 6,0 6,0 7 4 14 8 W 1007,6 50 0,0
13.11.2018 13:00:00 6,6 6,3 7 4 12 6 WNW 1007,5 28 0,1
13.11.2018 12:00:00 5,8 5,8 5 3 13 7 NW 1007,4 21 0,8
13.11.2018 11:00:00 5,6 5,6 7 4 13 7 WNW 1007,4 14 0,4
13.11.2018 10:00:00 5,3 5,3 6 3 10 5 WNW 1007,2 46 0,2
13.11.2018 09:00:00 5,1 5,1 3 1 8 5 NW 1007,0 26 0,1
13.11.2018 08:00:00 5,0 5,0 5 3 18 10 W 1006,8 50 0,0
13.11.2018 07:00:00 5,1 5,1 11 6 23 12 W 1006,6 50 0,0
13.11.2018 06:00:00 5,3 5,3 12 6 18 10 W 1006,6 50 0,0
13.11.2018 05:00:00 6,1 6,1 8 4 18 10 WSW 1006,4 50 0,0
13.11.2018 04:00:00 6,3 6,3 7 4 16 9 SW 1006,6 50 0,0
13.11.2018 03:00:00 6,3 6,3 8 5 21 11 SW 1006,7 49 0,0
13.11.2018 02:00:00 6,4 6,4 7 4 17 9 SSW 1006,9 23 0,2
13.11.2018 01:00:00 5,9 5,9 6 3 11 6 SSE 1007,1 8 0,0
13.11.2018 00:00:00 6,0 6,0 6 4 12 6 S 1007,3 9 0,0
12.11.2018 23:00:00 6,0 6,0 4 2 14 8 SSE 1007,8 5 0,0
12.11.2018 22:00:00 6,0 6,0 9 5 15 8 S 1008,0 11 0,1
12.11.2018 21:00:00 6,0 6,0 6 3 12 7 SSE 1008,2 13 0,0
12.11.2018 20:00:00 5,9 5,9 8 4 14 8 SE 1008,5 9 0,1
12.11.2018 19:00:00 6,1 6,1 8 4 15 8 SSE 1008,9 13 0,0
12.11.2018 18:00:00 6,1 6,1 9 5 18 10 S 1009,2 26 0,0
12.11.2018 17:00:00 6,2 6,2 7 4 16 9 SSE 1009,4 19 0,0
12.11.2018 16:00:00 6,2 6,2 9 5 18 10 S 1009,6 22 0,1
12.11.2018 15:00:00 6,0 6,0 9 5 23 12 S 1009,9 6 0,2
12.11.2018 14:00:00 6,0 6,0 12 7 23 13 SSE 1010,0 1,0 0,0
12.11.2018 13:00:00 5,9 5,9 12 6 21 12 SSE 1010,4 3,7 0,7
12.11.2018 12:00:00 5,9 5,9 13 7 23 12 SSE 1011,2 7 0,9
12.11.2018 11:00:00 5,7 5,7 13 7 29 16 SSE 1011,6 6 1,0
12.11.2018 10:00:00 5,7 5,7 14 7 27 15 SSE 1012,0 10 1,0
12.11.2018 09:00:00 5,5 5,5 14 8 25 14 SSE 1012,4 6 0,6
12.11.2018 08:00:00 5,4 5,4 12 6 27 15 SSE 1013,0 4,4 0,1
12.11.2018 07:00:00 5,5 5,5 16 9 31 17 SSE 1013,2 8 0,2
12.11.2018 06:00:00 5,4 5,4 13 7 27 15 SSE 1013,7 3,1 0,2
12.11.2018 05:00:00 5,4 5,4 11 6 26 14 SSE 1014,2 2,8 0,2
12.11.2018 04:00:00 5,3 5,3 14 7 29 15 SE 1014,5 2,5 0,1
12.11.2018 03:00:00 5,1 5,1 16 8 33 18 SSE 1015,1 3,2 0,0
12.11.2018 02:00:00 5,2 5,2 13 7 34 18 SSE 1015,5 4,4 0,2
12.11.2018 01:00:00 5,3 5,3 16 8 36 20 SSE 1015,8 2,5 0,1
12.11.2018 00:00:00 5,4 5,4 19 10 38 20 SSE 1016,0 3,3 0,1
11.11.2018 23:00:00 5,3 5,3 12 7 29 15 SSE 1016,3 4,2 0,2
11.11.2018 22:00:00 5,2 5,2 14 7 26 14 SSE 1016,7 4,3 0,4
11.11.2018 21:00:00 4,9 4,9 10 5 26 14 SSE 1017,2 3,0 0,2
11.11.2018 20:00:00 5,0 5,0 16 8 28 15 SSE 1017,5 3,9 0,3
11.11.2018 19:00:00 4,9 4,9 13 7 33 18 SE 1017,7 2,4 0,3
11.11.2018 18:00:00 5,0 5,0 14 8 27 14 SE 1017,7 2,2 0,2
11.11.2018 17:00:00 5,0 5,0 14 8 26 14 SSE 1017,8 4,3 0,1
11.11.2018 16:00:00 4,9 4,9 15 8 26 14 SE 1018,3 2,9 0,1
11.11.2018 15:00:00 4,8 4,8 12 7 24 13 SSE 1018,7 3,3 0,0
11.11.2018 14:00:00 4,8 4,8 13 7 26 14 SSE 1018,9 3,5 0,1
11.11.2018 13:00:00 4,7 4,7 15 8 36 20 SE 1019,3 8 0,0
11.11.2018 12:00:00 4,6 4,6 15 8 36 20 SSE 1019,6 6 0,0
11.11.2018 11:00:00 4,6 4,6 19 10 36 19 SE 1019,6 3,5 0,0
11.11.2018 10:00:00 4,6 4,6 15 8 32 17 SSE 1019,8 5 0,0
11.11.2018 09:00:00 4,6 4,6 17 9 34 18 SE 1019,9 4,8 0,0
11.11.2018 08:00:00 4,5 4,5 15 8 27 14 SE 1019,9 6 0,0
11.11.2018 07:00:00 4,1 4,1 11 6 30 16 SE 1020,1 15 0,0
11.11.2018 06:00:00 4,2 4,2 14 7 30 16 SE 1020,1 8 0,0
11.11.2018 05:00:00 4,4 4,4 16 9 29 16 SE 1020,0 5 0,2
11.11.2018 04:00:00 4,7 4,7 12 6 27 14 SSE 1020,0 6 0,2
11.11.2018 03:00:00 4,7 4,7 10 5 23 12 SSE 1020,1 2,0 0,2
11.11.2018 02:00:00 4,7 4,7 14 7 24 13 SE 1020,0 2,2 0,0
11.11.2018 01:00:00 4,4 4,4 13 7 21 11 SE 1020,2 1,9 0,0
11.11.2018 00:00:00 4,3 4,3 13 7 26 14 ESE 1020,3 2,4 0,0
10.11.2018 23:00:00 4,2 4,2 11 6 17 9 SE 1020,5 2,2 0,1
10.11.2018 22:00:00 4,0 4,0 11 6 19 10 ESE 1020,6 2,6 0,0
10.11.2018 21:00:00 3,9 3,9 9 5 16 9 SE 1020,6 4,4 0,2
10.11.2018 20:00:00 4,0 4,0 12 7 20 11 SE 1020,3 2,4 0,1
10.11.2018 19:00:00 4,0 4,0 12 7 21 11 ESE 1020,1 2,4 0,0
10.11.2018 18:00:00 4,0 4,0 9 5 20 11 ESE 1020,2 2,3 0,2
10.11.2018 17:00:00 4,1 4,1 12 6 18 10 ESE 1020,4 3,7 0,0
10.11.2018 16:00:00 4,0 4,0 9 5 15 8 ESE 1020,3 3,1 0,1
10.11.2018 15:00:00 3,1 3,1 8 5 13 7 E 1020,3 2,4 0,2
10.11.2018 14:00:00 2,8 2,8 8 4 30 16 E 1020,4 4,7 0,6
10.11.2018 13:00:00 4,0 4,0 12 6 24 13 ESE 1020,4 3,5 0,6
10.11.2018 12:00:00 4,4 4,4 13 7 23 12 ESE 1020,4 27 0,3
10.11.2018 11:00:00 4,3 4,3 8 5 18 10 ESE 1020,3 4,7 0,0
10.11.2018 10:00:00 4,3 4,3 11 6 23 13 ESE 1020,4 1,9 0,1
10.11.2018 09:00:00 4,4 4,4 9 5 20 11 SE 1020,3 2,0 0,2
10.11.2018 08:00:00 4,4 4,4 11 6 21 11 ESE 1019,8 2,5 0,0
10.11.2018 07:00:00 4,6 4,6 11 6 22 12 ESE 1019,6 2,7 0,0
10.11.2018 06:00:00 5,0 5,0 12 6 18 10 SE 1019,6 2,8 0,2
10.11.2018 05:00:00 5,2 5,2 9 5 21 11 SE 1019,5 2,5 0,1
10.11.2018 04:00:00 5,1 5,1 9 5 17 9 ESE 1019,5 3,2 0,6
10.11.2018 03:00:00 5,2 5,2 10 5 18 10 ESE 1019,6 2,4 0,0
10.11.2018 02:00:00 5,0 5,0 6 4 12 7 ESE 1019,8 2,8 0,1
10.11.2018 01:00:00 4,9 4,9 5 3 13 7 ESE 1020,1 1,7 0,2
10.11.2018 00:00:00 4,7 4,7 8 4 11 6 E 1020,0 1,9 0,0
09.11.2018 23:00:00 3,7 3,7 0 0 5 3 N 1020,4 1,0 0,1
09.11.2018 22:00:00 3,7 3,7 0 0 3 1 N 1020,8 0,7 0,1

tt = Température de l'air
td = dewpoint
ff = Vitesse du vent
fx = gusts
dd = Direction du vent
ppp = reduced air pressure
vv = visibility
rr = Quantités de précipitations

stations d'obs. à proximité